Location: Bastelaar
(51.0950°N, 3.8602°E)
Time: 16:26:51
(UTC+00:00)

Landsat 7 - Pass Details

Date: 18 November 2025
Orbit: 680 x 682 km, 97.9° (Epoch: 09 December)

Event Time Altitude Azimuth Distance (km) Brightness Sun altitude
Rises 16:47:53 0° 152° (SSE) 3,033 7.0 -8.7°
Reaches altitude 10° 16:50:08 10° 148° (SSE) 2,122 6.2 -9.0°
Maximum altitude 16:54:41 58° 71° (ENE) 801 3.8 -9.7°
Drops below altitude 10° 16:59:16 10° 353° (N) 2,136 6.2 -10.4°
Sets 17:01:32 0° 349° (N) 3,056 7.0 -10.7°
